This is the latest recevied weather packets stored in our database for station/object SP6KBU-12. If no packets are shown the sender has not sent any weather packets the latest 10 day(s).
| Time | Temp. | Humidity | Pressure | Rain* | Wind** | Luminosity | Snow |
|---|---|---|---|---|---|---|---|
| 1777309569 | 14.44° C | 27% | 1022.5 hPa | - | - | - | - |
| 1777308669 | 15° C | 26% | 1022.6 hPa | - | - | - | - |
| 1777307766 | 15.56° C | 25% | 1022.4 hPa | - | - | - | - |
| 1777306867 | 15° C | 24% | 1022.5 hPa | - | - | - | - |
| 1777305967 | 16.11° C | 24% | 1022.5 hPa | - | - | - | - |
| 1777305305 | 16.67° C | 24% | 1022.6 hPa | - | - | - | - |
| 1777305067 | 16.67° C | 24% | 1022.6 hPa | - | - | - | - |
| 1777304167 | 17.78° C | 24% | 1022.8 hPa | - | - | - | - |
| 1777303267 | 16.67° C | 23% | 1022.8 hPa | - | - | - | - |
| 1777302367 | 17.22° C | 24% | 1022.9 hPa | - | - | - | - |
| 1777301467 | 16.67° C | 23% | 1023 hPa | - | - | - | - |
| 1777300566 | 17.22° C | 23% | 1023.2 hPa | - | - | - | - |
| 1777299666 | 17.22° C | 23% | 1023.2 hPa | - | - | - | - |
| 1777298766 | 17.22° C | 24% | 1023.4 hPa | - | - | - | - |
| 1777297866 | 16.67° C | 22% | 1023.5 hPa | - | - | - | - |
| 1777296966 | 16.67° C | 23% | 1023.6 hPa | - | - | - | - |
| 1777296066 | 16.67° C | 23% | 1023.7 hPa | - | - | - | - |
| 1777295165 | 16.67° C | 24% | 1023.7 hPa | - | - | - | - |
| 1777294266 | 17.22° C | 23% | 1023.9 hPa | - | - | - | - |
| 1777293366 | 16.11° C | 24% | 1024.1 hPa | - | - | - | - |
| 1777292466 | 16.67° C | 24% | 1024.2 hPa | - | - | - | - |
| 1777291566 | 16.11° C | 24% | 1024.3 hPa | - | - | - | - |
| 1777290666 | 16.11° C | 25% | 1024.4 hPa | - | - | - | - |
| 1777289765 | 15.56° C | 26% | 1024.5 hPa | - | - | - | - |
| 1777288866 | 15.56° C | 26% | 1024.6 hPa | - | - | - | - |
* Rain since midnight (hover to see other rain measurements)
** Current wind speed in m/s (hover to see current wind gust speed)